This demonstration page uses our WeatherBlox Daily Observations layout. Learn more.

Left ArrowRight Arrow

34.74481, -87.66753

Hourly Observations for October 13, 2019

Temp ( °F °C ) Dew Point ( °F °C ) Humidity (%) Winds ( mph kmh ) Pressure ( in mb ) Visibility ( mi km ) Precip ( " mm )
12:53 am 00:53 Clear 44 6.7 41 5 89 89 Calm 30.06 1018 10 16 0.00 0.00
1:53 am 01:53 Clear 43 6.1 41 5 93 93 Calm 30.06 1018 10 16 0.00 0.00
2:53 am 02:53 Clear 42 5.6 40 4.4 92 92 Calm 30.04 1017 10 16 0.00 0.00
3:53 am 03:53 Clear 42 5.6 39 3.9 89 89 Calm 30.04 1017 10 16 0.00 0.00
4:53 am 04:53 Clear with Mist and Fog 41 5 39 3.9 93 93 Calm 30.05 1018 5 8 0.00 0.00
5:53 am 05:53 Clear 42 5.6 39 3.9 89 89 Calm 30.06 1018 10 16 0.00 0.00
6:53 am 06:53 Clear 41 5 38 3.3 89 89 Calm 30.08 1019 10 16 0.00 0.00
7:44 am 07:44 Mostly Sunny 43 6.1 42 5.6 97 97 Calm 30.12 1020 10 16 0.00 0.00
7:53 am 07:53 Sunny 45 7.2 42 5.6 90 90 Calm 30.09 1019 10 16 0.00 0.00
8:53 am 08:53 Sunny 51 10.6 46 7.8 83 83 Calm 30.09 1019 10 16 0.00 0.00
9:53 am 09:53 Sunny 58 14.4 46 7.8 65 65 Calm 30.08 1019 10 16 0.00 0.00
10:53 am 10:53 Sunny 64 17.8 40 4.4 41 41 NW 5 7 30.09 1019 10 16 0.00 0.00
11:53 am 11:53 Sunny 66 18.9 41 5 40 40 WNW 6 9 30.09 1019 10 16 0.00 0.00
12:53 pm 12:53 Sunny 65 18.3 40 4.4 40 40 NW 5 7 30.05 1018 10 16 0.00 0.00
1:53 pm 13:53 Sunny 67 19.4 43 6.1 42 42 VRB 5 7 30.04 1017 10 16 0.00 0.00
2:53 pm 14:53 Sunny 67 19.4 42 5.6 41 41 W 5 7 30.03 1017 10 16 0.00 0.00
3:53 pm 15:53 Sunny 68 20 42 5.6 39 39 W 6 9 30.03 1017 10 16 0.00 0.00
4:53 pm 16:53 Sunny 67 19.4 43 6.1 42 42 SSW 6 9 30.02 1017 10 16 0.00 0.00
5:53 pm 17:53 Mostly Sunny 65 18.3 44 6.7 47 47 SW 5 7 30.03 1017 10 16 0.00 0.00
6:53 pm 18:53 Clear 58 14.4 44 6.7 60 60 WSW 6 9 30.04 1017 10 16 0.00 0.00
7:53 pm 19:53 Clear 57 13.9 45 7.2 64 64 Calm 30.06 1018 10 16 0.00 0.00
8:53 pm 20:53 Clear 53 11.7 45 7.2 74 74 Calm 30.06 1018 10 16 0.00 0.00
9:53 pm 21:53 Clear 51 10.6 45 7.2 80 80 Calm 30.07 1018 10 16 0.00 0.00
10:53 pm 22:53 Clear 49 9.4 46 7.8 90 90 Calm 30.08 1019 10 16 0.00 0.00
11:53 pm 23:53 Clear 49 9.4 45 7.2 86 86 Calm 30.08 1019 10 16 0.00 0.00

Powered by AerisWeather